This is the latest recevied weather packets stored in our database for station/object KD4MBW. If no packets are shown the sender has not sent any weather packets the latest 10 day(s).
| Time | Temp. | Humidity | Pressure | Rain* | Wind** | Luminosity | Snow |
|---|---|---|---|---|---|---|---|
| 1787701736 | 30° C | 84% | 1014.9 hPa | 0 mm | - | 57 W/m² | - |
| 1787701430 | 30° C | 83% | 1014.9 hPa | 0 mm | - | 62 W/m² | - |
| 1787701126 | 30° C | 82% | 1014.9 hPa | 0 mm | - | 70 W/m² | - |
| 1787700822 | 30° C | 81% | 1014.9 hPa | 0 mm | - | 80 W/m² | - |
| 1787700517 | 30° C | 83% | 1014.7 hPa | 0 mm | - | 86 W/m² | - |
| 1787700213 | 30° C | 82% | 1014.7 hPa | 0 mm | - | 95 W/m² | - |
| 1787699909 | 30° C | 82% | 1014.6 hPa | 0 mm | - | 100 W/m² | - |
| 1787699604 | 30° C | 81% | 1014.6 hPa | 0 mm | - | 109 W/m² | - |
| 1787699300 | 30° C | 81% | 1014.2 hPa | 0 mm | - | 91 W/m² | - |
| 1787698996 | 30° C | 81% | 1014.5 hPa | 0 mm | - | 84 W/m² | - |
| 1787698690 | 30° C | 81% | 1014.4 hPa | 0 mm | - | 78 W/m² | - |
| 1787698386 | 30.56° C | 80% | 1014.4 hPa | 0 mm | - | 109 W/m² | - |
| 1787698082 | 30.56° C | 79% | 1014.7 hPa | 0 mm | - | 128 W/m² | - |
| 1787697776 | 30.56° C | 79% | 1014.6 hPa | 0 mm | - | 145 W/m² | - |
| 1787697472 | 30.56° C | 79% | 1014.5 hPa | 0 mm | - | 148 W/m² | - |
| 1787697167 | 30.56° C | 79% | 1014.7 hPa | 0 mm | - | 154 W/m² | - |
| 1787696863 | 31.11° C | 78% | 1014.5 hPa | 0 mm | - | 175 W/m² | - |
| 1787696558 | 31.11° C | 77% | 1014.3 hPa | 0 mm | - | 192 W/m² | - |
| 1787696254 | 31.11° C | 77% | 1014.6 hPa | 0 mm | - | 200 W/m² | - |
| 1787695953 | 31.11° C | 76% | 1014.5 hPa | 0 mm | - | 222 W/m² | - |
| 1787695648 | 31.11° C | 75% | 1014.5 hPa | 0 mm | - | 249 W/m² | - |
| 1787695345 | 31.11° C | 75% | 1014.2 hPa | 0 mm | - | 269 W/m² | - |
| 1787695043 | 31.11° C | 75% | 1014.2 hPa | 0 mm | - | 292 W/m² | - |
| 1787694738 | 31.11° C | 75% | 1014.3 hPa | 0 mm | - | 315 W/m² | - |
| 1787694433 | 31.11° C | 76% | 1014.3 hPa | 0 mm | - | 345 W/m² | - |
* Rain latest hour (hover to see other rain measurements)
** Current wind speed in m/s (hover to see current wind gust speed)